Das Wetter in  D-61279 Heinzenberg / Taunus





Wetter Minimum- & Maximum-Werte im Mrz 2016

Standort: Heinzenberg / Taunus - Höhe 297 m         8 24' 1" Ost 50 21' 51" Nord
(   3-stündige Aktualisierung    letzte Aktualisierung um 19:04 am 31.03.2016  )


Messgrösse

Minimum

Maximum

Durchschnitt

Temperatur West /
Luftfeuchte West
Anklicken für Monats-Diagramm

-4,7 C

07:33
01.03.2016

37 %

15:19
17.03.2016

16,0 C

15:19
17.03.2016

92 %

22:23
06.03.2016

Temp

4,2 C

Feuchte

76 %

Temperatur Ost /
Luftfeuchte Ost
Anklicken für Monats-Diagramm

-4,2 C

07:37
01.03.2016

--

--
--

16,1 C

15:14
18.03.2016

--

--
--

4,3 C

--

Luftdruck Anklicken für Monats-Diagramm

993,0 hPa

04:16
05.03.2016

1034,9 hPa

01:35
14.03.2016

1015,2 hPa

Taupunkt

-8,1 C

07:33
01.03.2016

6,6 C

15:04
30.03.2016

0,1 C

Windchill
( gefühlte Temperatur )

-11,1 C

12:51
04.03.2016

16,0 C

15:19
17.03.2016

2,5 C

Windgeschwindigkeit /
Windrichtung
Anklicken für Monats-Diagramm

---

59,6 km/h / SW

16:52
28.03.2016

5,6 km/h
W-SW

Helligkeit /
Sonnenschein
Anklicken für Monats-Diagramm
Anklicken für Monats-Diagramm

Sonnenschein:

65:54 Stunden

Max: 10:20 Std am
17.03.2016

84,5 klux

13:43
29.03.2016

15,0 klux

Solarstrahlung Anklicken für Monats-Diagramm

---

578 W/m

13:43
29.03.2016

115 W/m

Regenmenge
    Mrz 2016
Anklicken für Monats-Diagramm

Insgesamt 51,2 l/m

in 83:27 Stunden
an 18 Tagen

10,9 l/m

22:20
31.03.2016

Gesamtmenge

51,2 l/m

Regen-Tage
    Mrz 2016
Anklicken für Monats-Diagramm

>   0 mm/Tag

>   2 mm/Tag

>   5 mm/Tag

> 10 mm/Tag

> 20 mm/Tag

18 Tage     
9 Tage     
3 Tage     
  1 Tag     
0 Tage     

Eisige Tage Mrz 2016 / 2015

Tmin ≤ -10C     

0 Tage

/

0 Tage

Eistage Mrz 2016 / 2015

Tmax <     0C     

0 Tage

/

0 Tage

Frosttage Mrz 2016 / 2015

Tmin ≤     0C     

15 Tage

/

16 Tage

Kalte Tage Mrz 2016 / 2015

Tmax <   10C     

22 Tage

/

12 Tage

Warme Tage Mrz 2016 / 2015

Tmax ≥   20C     

0 Tage

/

  1 Tag

Sommertage Mrz 2016 / 2015

Tmax ≥   25C     

0 Tage

/

0 Tage

Heisse Tage Mrz 2016 / 2015

Tmax ≥   30C     

0 Tage

/

0 Tage


Monatsdiagramm Mrz 2016

Die Kurven zeigen den Durchschnittswert des jeweiligen Tages an


Wetter-Monatsübersicht Mrz 2016
Datum
  Temperatur
   Luftdruck
   Wind
  Regen
   Luftfeuchte
   Helligkeit

Sonnen-
schein


Temp.

Min.
Temp.

Max.
Temp.


Luftdruck

Min.
Luftdruck

Max.
Luftdruck

-Geschw.
Haupt-Richtg.

Max.
Wind

Menge /
Dauer


Feuchte

Min.
Feuchte

Max.
Feuchte


Helligkeit

Max.
Helligkeit

1.
Mrz
0,6 C-4,7 C
07:33
6,8 C
13:58
1018,9 hPa1010,7 hPa
23:49
1023,0 hPa
07:33
7,3 km/h
W-SW
33,2 km/h
17:38  
2,1 l/m
5:46 Stunden
69 %43 %
15:03
86 %
23:59
24,3 klux54,2 klux
12:43
5:10 Std 
2.
Mrz
3,8 C1,4 C
00:04
5,7 C
11:34
1002,5 hPa998,8 hPa
17:44
1010,7 hPa
00:04
15,7 km/h
W-SW
43,6 km/h
12:49  
3,2 l/m
6:50 Stunden
84 %75 %
17:59
89 %
09:44
8,4 klux23,9 klux
13:34
25 Min 
3.
Mrz
1,8 C-2,0 C
23:41
3,7 C
15:30
1002,5 hPa1000,1 hPa
10:10
1008,1 hPa
23:41
7,0 km/h
W-SW
29,6 km/h
10:15  
---
82 %77 %
10:20
87 %
23:41
7,7 klux33,0 klux
09:05
15 Min 
4.
Mrz
0,3 C-4,0 C
07:46
4,6 C
14:06
1000,4 hPa994,0 hPa
23:36
1008,2 hPa
02:56
8,1 km/h
O-SO
42,1 km/h
12:51  
3,3 l/m
6:30 Stunden
86 %71 %
14:01
90 %
08:51
10,2 klux24,0 klux
12:41
10 Min 
5.
Mrz
3,4 C-0,2 C
23:32
6,5 C
15:26
995,3 hPa993,0 hPa
04:16
998,5 hPa
23:32
2,6 km/h
W-SW
18,5 km/h
10:21  
4,3 l/m
7:36 Stunden
87 %78 %
15:36
91 %
04:51
9,8 klux23,4 klux
14:16
5 Min 
6.
Mrz
1,1 C-0,5 C
02:17
3,1 C
10:32
1000,2 hPa998,4 hPa
00:52
1002,5 hPa
21:57
4,3 km/h
W-SW
25,2 km/h
18:17  
6,4 l/m
9:10 Stunden
88 %81 %
10:52
92 %
22:23
8,1 klux31,4 klux
14:27
--- 
7.
Mrz
1,4 C-1,8 C
23:44
7,6 C
15:58
1004,9 hPa1002,5 hPa
00:03
1010,1 hPa
23:44
1,4 km/h
NW
20,6 km/h
13:38  
0,5 l/m
1:40 Stunden
85 %68 %
15:48
92 %
00:03
20,9 klux67,4 klux
11:43
2:25 Std 
8.
Mrz
1,1 C-1,8 C
01:59
7,7 C
15:29
1015,2 hPa1010,1 hPa
00:09
1018,3 hPa
22:55
2,4 km/h
SO
16,7 km/h
13:54  
---
10 Minuten
79 %56 %
16:34
91 %
08:39
24,9 klux68,8 klux
12:44
5:09 Std 
9.
Mrz
2,0 C-2,4 C
02:35
9,1 C
15:20
1011,0 hPa1006,6 hPa
15:20
1017,4 hPa
01:05
8,5 km/h
O-SO
40,1 km/h
14:35  
---
72 %48 %
14:35
85 %
02:50
30,9 klux66,9 klux
12:50
8:45 Std 
10.
Mrz
3,0 C-3,0 C
06:56
12,0 C
14:16
1017,6 hPa1011,1 hPa
00:36
1024,3 hPa
23:57
1,7 km/h
NO
19,8 km/h
13:16  
---
71 %51 %
13:31
85 %
08:36
27,5 klux62,5 klux
14:06
4:55 Std 
11.
Mrz
2,9 C-2,4 C
05:32
9,8 C
14:57
1026,6 hPa1024,4 hPa
00:02
1029,1 hPa
23:52
1,6 km/h
O-NO
22,8 km/h
13:32  
---
73 %55 %
15:17
87 %
09:37
14,6 klux56,6 klux
14:52
15 Min 
12.
Mrz
2,9 C1,6 C
23:59
4,1 C
15:23
1029,9 hPa1028,1 hPa
02:17
1031,4 hPa
23:59
1,7 km/h
O-NO
23,9 km/h
23:49  
---
71 %68 %
00:02
74 %
23:04
5,4 klux12,2 klux
14:13
--- 
13.
Mrz
3,0 C-0,8 C
23:55
8,0 C
12:34
1032,4 hPa1031,4 hPa
00:04
1034,8 hPa
23:20
2,9 km/h
NO
26,1 km/h
12:04  
---
74 %64 %
12:34
82 %
08:04
14,3 klux75,2 klux
12:14
1:00 Std 
14.
Mrz
3,7 C-1,3 C
06:35
12,1 C
15:50
1031,5 hPa1028,0 hPa
16:50
1034,9 hPa
01:35
3,0 km/h
NO
23,3 km/h
16:50  
---
62 %39 %
16:40
80 %
01:45
32,4 klux61,3 klux
12:10
9:25 Std 
15.
Mrz
1,9 C-2,7 C
05:01
6,9 C
15:51
1026,6 hPa1024,5 hPa
15:51
1029,9 hPa
02:11
1,0 km/h
NO
22,8 km/h
15:16  
---
55 Minuten
74 %64 %
00:01
80 %
14:11
8,9 klux52,6 klux
15:41
5 Min 
16.
Mrz
3,9 C0,6 C
23:53
8,6 C
16:12
1027,0 hPa1026,0 hPa
00:02
1029,5 hPa
23:53
5,5 km/h
NO
33,7 km/h
13:52  
---
66 %53 %
16:52
75 %
07:27
16,3 klux50,8 klux
14:47
2:15 Std 
17.
Mrz
4,8 C-3,8 C
06:59
16,0 C
15:19
1026,9 hPa1023,4 hPa
16:04
1030,1 hPa
06:59
1,6 km/h
SO
17,4 km/h
11:49  
---
62 %37 %
15:19
83 %
08:34
34,1 klux59,3 klux
12:49
10:20 Std 
18.
Mrz
4,7 C-2,9 C
06:59
16,0 C
15:19
1021,4 hPa1017,3 hPa
15:59
1025,4 hPa
00:04
5,8 km/h
W-NW
28,8 km/h
15:34  
---
67 %37 %
14:54
82 %
08:29
33,4 klux60,2 klux
12:49
9:55 Std 
19.
Mrz
4,3 C2,6 C
00:00
6,9 C
16:10
1021,3 hPa1020,4 hPa
16:10
1022,0 hPa
00:00
2,0 km/h
NW
11,5 km/h
16:15  
---
34 Minuten
77 %68 %
15:30
86 %
09:15
7,5 klux18,2 klux
15:25
--- 
20.
Mrz
4,5 C2,8 C
06:56
7,2 C
15:41
1019,6 hPa1018,3 hPa
15:41
1021,8 hPa
01:01
4,3 km/h
NW
14,8 km/h
12:41  
---
73 %66 %
15:21
78 %
09:36
8,3 klux19,5 klux
15:11
--- 
21.
Mrz
5,7 C4,3 C
06:37
8,2 C
12:37
1018,1 hPa1016,4 hPa
23:08
1019,4 hPa
10:12
6,3 km/h
NW
26,8 km/h
13:37  
2,0 l/m
2:30 Stunden
79 %70 %
12:32
89 %
06:07
13,8 klux82,0 klux
12:27
5 Min 
22.
Mrz
5,8 C2,6 C
07:13
8,4 C
13:18
1013,9 hPa1011,2 hPa
22:03
1016,5 hPa
00:38
7,3 km/h
NW
26,6 km/h
12:43  
0,8 l/m
2:56 Stunden
76 %67 %
13:03
84 %
07:13
13,4 klux66,6 klux
11:13
35 Min 
23.
Mrz
6,6 C4,5 C
06:49
10,3 C
15:29
1010,9 hPa1009,6 hPa
15:29
1013,2 hPa
23:30
5,1 km/h
NW
31,4 km/h
15:34  
0,2 l/m
45 Minuten
76 %60 %
15:24
89 %
06:34
14,5 klux64,2 klux
15:29
10 Min 
24.
Mrz
5,5 C2,9 C
07:25
7,8 C
11:20
1014,7 hPa1012,3 hPa
03:25
1016,4 hPa
20:10
4,1 km/h
W-NW
18,1 km/h
12:25  
0,5 l/m
2:29 Stunden
77 %66 %
11:05
83 %
08:00
12,4 klux64,4 klux
10:20
25 Min 
25.
Mrz
5,4 C4,6 C
07:11
6,0 C
12:41
1013,9 hPa1012,2 hPa
12:41
1018,5 hPa
23:52
9,3 km/h
W-SW
31,2 km/h
14:41  
6,8 l/m
12:10 Stunden
86 %79 %
03:26
90 %
17:11
8,3 klux26,9 klux
14:26
--- 
26.
Mrz
5,1 C4,7 C
05:02
5,3 C
00:32
1019,3 hPa1018,5 hPa
00:32
1019,6 hPa
05:02
0,5 km/h
NW
5,9 km/h
00:22  
---
90 %90 %
00:02
90 %
00:02
0,0 klux0,0 klux
00:02
--- 
27.
Mrz
10,5 C7,8 C
23:57
11,0 C
18:32
1013,9 hPa1011,7 hPa
19:36
1015,7 hPa
18:41
1,8 km/h
SW
16,6 km/h
22:42  
---
53 %50 %
18:32
67 %
23:47
0,941 klux3,060 klux
19:27
--- 
28.
Mrz
7,5 C4,7 C
05:37
10,3 C
16:42
1004,6 hPa999,2 hPa
16:42
1012,0 hPa
00:02
17,1 km/h
SW
59,6 km/h
16:52  
4,3 l/m
3:20 Stunden
73 %61 %
10:32
86 %
17:37
13,00 klux50,30 klux
17:37
45 Min 
29.
Mrz
7,8 C4,5 C
02:58
13,1 C
16:43
1008,2 hPa1001,7 hPa
00:03
1012,0 hPa
21:58
25,0 km/h
W-SW
51,7 km/h
01:18  
1,2 l/m
1:45 Stunden
68 %48 %
17:03
85 %
02:23
25,3 klux84,5 klux
13:43
3:20 Std 
30.
Mrz
8,2 C7,0 C
11:54
10,6 C
16:54
1010,8 hPa1008,8 hPa
08:19
1013,0 hPa
21:44
9,4 km/h
W-SW
25,9 km/h
02:29  
4,9 l/m
7:45 Stunden
80 %69 %
00:19
88 %
14:04
12,4 klux38,0 klux
16:04
--- 
31.
Mrz
5,9 C3,0 C
23:51
7,0 C
00:00
1011,1 hPa1009,1 hPa
17:10
1012,2 hPa
14:15
0,7 km/h
NO
15,1 km/h
15:55  
10,9 l/m
10:36 Stunden
88 %85 %
11:05
89 %
03:10
3,4 klux10,1 klux
12:55
--- 



Mrz
2016

Temperatur

  

Luftdruck

  

Wind

  

Regen

  

Luftfeuchte

  

Helligkeit

Sonnen-
schein

Min

Max

Min

Max

Max

Max

Min

Max

Max

Max

4,2 C

-4,7 C

07:33 Uhr
01.03.2016

16,0 C

15:19 Uhr
17.03.2016

1015,2 hPa

993,0 hPa

04:16 Uhr
05.03.2016

1034,9 hPa

01:35 Uhr
14.03.2016

5,6 km/h

W-SW

59,6 km/h

16:52 Uhr
28.03.2016

10,9 l/m

10:36 Stunden
31.03.2016

76 %

37 %

15:19 Uhr
17.03.2016

92 %

22:23 Uhr
06.03.2016

15,0 klux

84,5 klux

13:43 Uhr
29.03.2016

10:20 Std

am
17.03.2016

Gesamt

Gesamt

51,2 l/m

18 Tage
83:27 h

65:54 Std


Wetter-Diagramme Mrz 2016     Heinzenberg / Taunus   
TemperaturLuftfeuchte
SolarstrahlungLuftdruck
HelligkeitSonnenschein
RegenmengeRegendauer
Wind-GeschwindigkeitWind-Richtung